STARLINK-36337, 68716

Orbit data source: Space-Track

STARLINK-36337, 68716 is a payload satellite owned by SpaceX/Seattle (US) in LEO that was launched on Tue, 14 Apr 2026 UTC via an FALCON 9 launch vehicle from the Air Force Eastern Test Range (AFETR). Payload-class satellites include a variety of spacecraft equipped with specific instruments for various scientific and technological missions. These include communications satellites like Starlink; space stations such as the ISS; scientific satellites like the Hubble; Earth observation satellites from companies like Planet Labs, Umbra, and HawkEye 360; GPS; miniature CubeSats for education and research; and military/defense satellites.

Loading next visibility...
Identifier
68716, 2026-081T
Orbit
LEO
Country
Flag of USUS
Related business
Manufacturer
SpaceX/Seattle
Mission
Operational spacecraft
Bus & Motor
STARLINK V2MO, Unknown motor
Mass
575 kg wet, ~530 kg dry
Launch date (UTC)
2026-04-14 (2 months ago)
Launch vehicle
FALCON 9
Launch site
Air Force Eastern Test Range (AFETR)
Object type
Payload
Rocket body
Debris
Shape & HBR
Unknown shape, 14.5 m
Radar Cross Section
Large (>1 m²)

Expand to show TLE details & history
Last TLE update: 1 day ago

TLE from 1 day ago
0 STARLINK-36337
1 68716U 26081T   26170.58009056  .00021757  00000-0  65305-3 0  9998
2 68716  53.1596 280.0616 0001051  76.6912 283.4208 15.34407251 10358
Epoch: 2026-06-19T13:55Z
TLE epoch observation values (Epoch: 2026-06-19T13:55:19.824Z)
Latitude
Longitude
163.42197°
Altitude
463.416 km
Speed
7.636 km/s
True Right ascension
18h 40m 14s
True Declination
0° 00' 00"
Sunlit
Object was in full shadow at epoch
Visualization orbit readout
Latitude
Unknown
Longitude
Unknown
Altitude
Unknown
Speed
Unknown
Apparent Right ascension
Unknown
Apparent Declination
Unknown
Sunlit
N/A
Visualization observer readout
Local Sidereal Time
07:17:42
Azimuth
Unknown
Elevation
Unknown
Doppler factor
Unknown
Orbital elements
Apogee altitude
463.658 km
Perigee altitude
462.22 km
Semi-major axis
6,841.076 km
Eccentricity
0.00011
Inclination
53.1596°
RAAN
280.0616°
Arg. of periapsis
76.6912°
True anomaly
283.40908°
Mean anomaly
283.4208°
Eccentric anomaly
283.41494°
Mean motion
3.83581 °/min
Orbital period
93.85 mins
BSTAR
0.00065305
Loading maneuver chart data...
Computing Atmospheric mass density...
Loading historical data...
Loading historical data...
Loading historical data...
Loading historical data...
Loading historical data...
Loading historical data...
Loading historical data...

Documentation

Showing up to 5 results
|